Location: Recife
(8.0585°S, 34.8848°W)
Time: 21:20:35
(UTC-03:00)

A-11 Canister half - Pass Details

Date: 17 April 2026
Orbit: 1523 x 1685 km, 47.3° (Epoch: 12 May)

Event Time Altitude Azimuth Distance (km) Brightness Sun altitude
Rises 09:38:21 0° 313° (NW) 4,814 11.5 58.7°
Reaches altitude 10° 09:41:31 10° 310° (NW) 3,808 11.1 59.4°
Maximum altitude 09:51:04 67° 229° (SW) 1,674 9.9 61.2°
Drops below altitude 10° 10:00:23 10° 148° (SSE) 3,711 11.1 62.9°
Sets 10:03:27 0° 145° (SE) 4,686 11.5 63.5°
